| time (UTC) | temp F | wind direction | speed knots | gust knots | rain 1hr in | rain 24hr in | rain mn in | humidity % | barometer mb |
| 20260902025003 | 75 | 12 | 0.0 | 0.0 | 0.00 | 0.00 | 0.00 | 87 | 1020.3 |
| 20260902024003 | 75 | 12 | 0.0 | 0.0 | 0.00 | 0.00 | 0.00 | 87 | 1020.3 |
| 20260902023003 | 75 | 12 | 0.0 | 0.0 | 0.00 | 0.00 | 0.00 | 87 | 1020.2 |
| 20260902022003 | 76 | 12 | 0.0 | 0.0 | 0.00 | 0.00 | 0.00 | 87 | 1020.1 |
| 20260902021003 | 76 | 12 | 0.0 | 0.0 | 0.00 | 0.00 | 0.00 | 86 | 1019.9 |
| 20260902020002 | 76 | 12 | 0.0 | 0.0 | 0.00 | 0.00 | 0.00 | 86 | 1019.9 |
| 20260901205003 | 90 | 5 | 2.6 | 5.2 | 0.00 | 0.04 | 0.00 | 57 | 1019.5 |
| 20260901204003 | 90 | 5 | 0.9 | 2.6 | 0.00 | 0.04 | 0.00 | 57 | 1019.7 |
| 20260901203003 | 89 | 5 | 3.5 | 5.2 | 0.00 | 0.04 | 0.00 | 59 | 1020.0 |
| 20260901202003 | 88 | 5 | 1.7 | 4.3 | 0.00 | 0.04 | 0.00 | 57 | 1020.1 |
| 20260901201003 | 88 | 5 | 1.7 | 2.6 | 0.00 | 0.04 | 0.00 | 61 | 1020.2 |
| 20260901200003 | 89 | 5 | 2.6 | 5.2 | 0.00 | 0.04 | 0.00 | 55 | 1020.1 |
| 20260901124003 | 68 | 280 | 0.0 | 0.0 | 0.00 | 0.04 | 0.00 | 91 | 1022.5 |
| 20260901123003 | 68 | 280 | 0.0 | 0.0 | 0.00 | 0.04 | 0.00 | 91 | 1022.5 |
| 20260901122003 | 67 | 280 | 0.0 | 0.0 | 0.00 | 0.04 | 0.00 | 91 | 1022.4 |
| 20260901121003 | 67 | 280 | 0.0 | 0.0 | 0.00 | 0.04 | 0.00 | 91 | 1022.4 |
| 20260901120003 | 67 | 280 | 0.0 | 0.0 | 0.00 | 0.04 | 0.00 | 91 | 1022.3 |
| 20260901115003 | 67 | 280 | 0.0 | 0.0 | 0.00 | 0.04 | 0.00 | 90 | 1022.1 |
| 20260901114003 | 67 | 280 | 0.0 | 0.0 | 0.00 | 0.04 | 0.00 | 90 | 1022.0 |
| 20260901113003 | 67 | 280 | 0.0 | 0.0 | 0.00 | 0.04 | 0.00 | 90 | 1021.9 |
| 20260901112003 | 66 | 280 | 0.0 | 0.0 | 0.00 | 0.04 | 0.00 | 90 | 1021.7 |
| 20260901111004 | 67 | 280 | 0.0 | 0.0 | 0.00 | 0.04 | 0.00 | 90 | 1021.6 |
| 20260901110004 | 67 | 280 | 0.0 | 0.0 | 0.00 | 0.04 | 0.00 | 90 | 1021.6 |
| 20260901105003 | 67 | 280 | 0.0 | 0.0 | 0.00 | 0.04 | 0.00 | 90 | 1021.5 |
| 20260901104003 | 67 | 280 | 0.0 | 0.0 | 0.00 | 0.04 | 0.00 | 90 | 1021.4 |
| 20260901072004 | 68 | 280 | 0.0 | 0.0 | 0.00 | 0.04 | 0.00 | 91 | 1021.1 |
| 20260901071003 | 68 | 280 | 0.0 | 0.0 | 0.00 | 0.04 | 0.00 | 91 | 1021.2 |
| 20260901070003 | 68 | 280 | 0.0 | 0.0 | 0.00 | 0.04 | 0.00 | 91 | 1021.3 |
| 20260901065003 | 68 | 280 | 0.0 | 0.0 | 0.00 | 0.04 | 0.00 | 91 | 1021.3 |
| 20260901064003 | 68 | 280 | 0.0 | 0.0 | 0.00 | 0.04 | 0.00 | 91 | 1021.3 |